Location: Pasadena, ca
(34.1243°N, 118.1037°W)
Time: 08:32:01
(UTC-08:00)

N. Korean satellite - Pass Details

Date: 17 November 2017
Orbit: 460 x 514 km, 97.2° (Epoch: 21 November)

Event Time Altitude Azimuth Distance (km) Brightness Sun altitude
Rises 05:36:59 0° 35° (NE) 2,610 10.5 -10.7°
Reaches altitude 10° 05:39:59 10° 62° (ENE) 1,729 10.1 -10.1°
Maximum altitude 05:41:55 14° 94° (E) 1,512 10.4 -9.7°
Drops below altitude 10° 05:43:52 10° 125° (SE) 1,730 10.7 -9.3°
Sets 05:46:51 0° 152° (SSE) 2,614 11.0 -8.7°
